Date,TemperatureHighF,TemperatureAvgF,TemperatureLowF,DewpointHighF,DewpointAvgF,DewpointLowF,HumidityHigh,HumidityAvg,HumidityLow,PressureMaxIn,PressureMinIn,WindSpeedMaxMPH,WindSpeedAvgMPH,GustSpeedMaxMPH,PrecipitationSumIn
2013-3-1,54,42,32,34,19,-100,93,54,41,29.70,29.60,10,-93,15,0.00
2013-3-2,52,40,34,35,19,-100,89,56,43,29.72,29.59,12,-93,16,0.00
2013-3-3,46,36,31,30,15,-100,89,56,42,29.75,29.64,15,-82,16,0.00
2013-3-4,49,35,29,27,13,-100,85,51,30,29.91,29.75,16,-62,21,0.00
2013-3-5,61,45,28,56,27,-100,89,62,33,29.93,29.45,17,-70,22,0.02
2013-3-6,60,42,41,57,21,-100,92,62,48,29.70,29.30,33,-105,41,0.07
2013-3-7,55,43,39,34,19,-100,73,51,40,29.97,29.71,19,-84,28,0.00
2013-3-8,54,43,35,31,20,-100,75,48,35,30.02,29.88,22,-58,31,0.00
2013-3-9,61,44,37,37,23,-100,88,53,35,30.10,30.01,15,-70,19,0.00
2013-3-10,60,44,30,45,24,-100,96,63,19,30.13,30.06,12,-77,16,0.00
2013-3-11,69,55,43,57,42,-100,97,72,50,30.08,29.80,16,-50,24,0.00
2013-3-12,68,56,58,63,43,-100,97,80,77,29.80,29.58,16,-98,27,0.74
2013-3-13,60,50,48,54,27,-100,81,51,28,29.86,29.68,17,-63,21,0.00
2013-3-14,52,40,35,32,16,-100,84,45,31,30.01,29.87,17,-61,21,0.00
2013-3-15,58,43,30,42,21,-100,89,55,23,30.00,29.77,16,-62,22,0.00
2013-3-16,75,58,53,53,38,-100,73,57,39,29.77,29.53,15,-63,23,0.00
2013-3-17,60,50,47,51,37,-100,95,73,68,29.97,29.66,18,-60,21,0.00
2013-3-18,65,50,47,57,36,-100,95,78,71,29.95,29.71,18,-88,21,0.00
2013-3-19,69,54,50,59,42,-100,98,75,35,29.78,29.55,13,-55,18,0.43
2013-3-20,56,48,42,38,16,-100,81,35,17,29.91,29.62,16,-51,21,0.00
2013-3-21,51,39,31,36,19,-100,94,58,38,29.75,29.49,18,-72,23,0.00
2013-3-22,52,38,28,34,14,-100,82,46,23,29.89,29.76,10,-51,19,0.00
2013-3-23,59,45,33,38,27,-100,90,58,36,29.85,29.72,6,-42,9,0.00
2013-3-24,51,42,39,50,29,-100,96,82,85,29.75,29.25,20,-95,27,0.23
2013-3-25,50,38,41,43,16,-100,93,64,54,29.61,29.31,17,-150,28,0.03
2013-3-26,49,41,34,35,23,-100,77,58,46,29.87,29.61,13,-50,16,0.00
2013-3-27,55,43,34,34,20,-100,83,51,30,30.00,29.88,18,-60,22,0.00
2013-3-28,55,43,32,33,23,-100,79,51,32,30.05,29.94,13,-31,19,0.00
2013-3-29,60,45,29,37,27,-100,90,58,28,30.13,30.00,14,-30,19,0.00
2013-3-30,64,36,37,44,2,-100,92,53,39,30.05,29.94,9,-267,13,0.00
2013-3-31,69,54,45,57,41,-100,92,75,61,29.95,29.66,22,-60,30,0.04